Volver al catálogo

STARLINK-30498

ActivoComunicacionesVLEO
NORAD 57971·PAYLOAD·🇺🇸 United States

Lanzado Sep 30, 2023 desde Cape Canaveral Space Force Station

Loading…

Próximos Pases (próximas 24 horas)

TLE

ActualizadoSource: CelesTrak SupGP

Época: Sep 14, 2026, 21:33 UTC

1 57971C 23151H   26257.89840278 -.00078387  00000+0 -28388-2 0  2571
2 57971  43.0033 347.4099 0001454 268.5879  97.5274 15.27622345    11

Sigue STARLINK-30498 en tiempo real con AllMySat

Download on the App Store